Precipitable_Water
0.46 0.44 0.44 0.43 0.46 0.47 0.45 0.44 0.47 0.50 0.56 0.58 0.56 0.53 0.47 0.42 0.49 0.48 0.48 0.48 0.49 0.51 0.54 0.53 0.53 0.57 0.61 0.67 0.72 0.75 0.77 0.83 0.87 0.80 0.75 0.84 0.87 0.95 1.15 1.19 1.26 1.35 1.36 1.38 1.30 1.18 1.12 1.03 1.08 1.24 1.27 1.27 1.28 1.28 1.28 1.25 1.23 1.18 1.13 1.07 1.00 0.96 0.95
0.50 0.50 0.49 0.46 0.46 0.47 0.44 0.46 0.48 0.47 0.47 0.47 0.47 0.54 0.55 0.51 0.46 0.44 0.46 0.45 0.45 0.46 0.47 0.48 0.50 0.51 0.51 0.53 0.58 0.62 0.65 0.69 0.74 0.80 0.80 0.77 0.79 0.78 0.91 0.99 1.09 1.17 1.27 1.33 1.33 1.31 1.14 1.06 1.05 1.09 1.12 1.25 1.28 1.27 1.26 1.27 1.26 1.26 1.24 1.21 1.15 1.08 1.00
0.52 0.52 0.51 0.49 0.49 0.46 0.44 0.46 0.46 0.46 0.49 0.50 0.50 0.48 0.49 0.51 0.52 0.49 0.45 0.43 0.41 0.41 0.40 0.41 0.44 0.47 0.48 0.49 0.52 0.55 0.58 0.60 0.65 0.69 0.71 0.77 0.82 0.82 0.84 0.84 0.82 0.88 1.00 1.14 1.22 1.26 1.27 1.22 1.04 1.04 1.10 1.10 1.09 1.18 1.26 1.23 1.23 1.24 1.27 1.29 1.27 1.24 1.17
0.52 0.51 0.49 0.49 0.51 0.46 0.45 0.45 0.45 0.47 0.49 0.50 0.53 0.51 0.49 0.51 0.50 0.50 0.48 0.47 0.46 0.44 0.41 0.36 0.34 0.34 0.39 0.45 0.48 0.50 0.52 0.54 0.55 0.57 0.61 0.68 0.74 0.74 0.78 0.83 0.80 0.76 0.71 0.73 0.87 1.09 1.17 1.15 1.15 1.12 1.14 1.16 1.12 1.11 1.23 1.29 1.27 1.26 1.27 1.28 1.29 1.30 1.28
0.53 0.51 0.49 0.47 0.48 0.46 0.47 0.47 0.46 0.49 0.48 0.47 0.49 0.48 0.50 0.54 0.55 0.54 0.53 0.51 0.48 0.45 0.43 0.45 0.45 0.42 0.38 0.39 0.43 0.48 0.49 0.51 0.54 0.55 0.56 0.56 0.62 0.67 0.72 0.78 0.81 0.85 0.83 0.76 0.74 0.83 0.97 1.06 1.15 1.13 1.17 1.20 1.19 1.17 1.24 1.31 1.35 1.32 1.29 1.27 1.29 1.30 1.31
0.53 0.51 0.48 0.47 0.48 0.48 0.47 0.47 0.46 0.45 0.47 0.47 0.48 0.48 0.51 0.53 0.53 0.51 0.47 0.43 0.44 0.48 0.50 0.50 0.51 0.53 0.53 0.49 0.42 0.40 0.46 0.50 0.53 0.53 0.51 0.52 0.56 0.59 0.67 0.79 0.81 0.83 0.85 0.87 0.83 0.80 0.82 0.90 0.99 0.96 1.03 1.18 1.14 1.17 1.23 1.25 1.23 1.31 1.33 1.31 1.29 1.31 1.32
0.52 0.52 0.50 0.48 0.51 0.52 0.50 0.45 0.46 0.48 0.47 0.44 0.46 0.47 0.48 0.48 0.48 0.47 0.48 0.48 0.48 0.47 0.46 0.46 0.46 0.45 0.45 0.45 0.47 0.46 0.42 0.44 0.51 0.55 0.54 0.53 0.55 0.58 0.63 0.65 0.71 0.77 0.85 0.98 0.98 0.88 0.79 0.76 0.74 0.75 0.76 0.87 0.98 1.02 1.16 1.19 1.23 1.16 1.20 1.30 1.34 1.33 1.33
0.53 0.52 0.50 0.49 0.52 0.52 0.51 0.50 0.52 0.52 0.48 0.48 0.47 0.48 0.49 0.48 0.48 0.49 0.50 0.49 0.49 0.48 0.48 0.48 0.48 0.47 0.47 0.46 0.45 0.45 0.48 0.50 0.49 0.50 0.53 0.54 0.54 0.54 0.55 0.58 0.63 0.70 0.79 0.88 0.97 1.03 0.99 0.86 0.80 0.78 0.77 0.72 0.81 0.93 0.96 1.09 1.12 1.10 1.06 1.18 1.29 1.31 1.34
0.55 0.54 0.52 0.53 0.53 0.52 0.50 0.50 0.50 0.51 0.50 0.50 0.51 0.49 0.50 0.49 0.49 0.48 0.48 0.48 0.48 0.48 0.50 0.52 0.53 0.52 0.51 0.48 0.46 0.46 0.45 0.52 0.53 0.52 0.53 0.54 0.53 0.55 0.56 0.58 0.59 0.60 0.69 0.79 0.88 0.96 1.04 1.08 1.05 0.98 0.88 0.85 0.80 0.76 0.87 0.89 0.97 0.98 1.10 1.06 1.17 1.26 1.26
0.54 0.52 0.50 0.50 0.50 0.53 0.52 0.51 0.50 0.50 0.51 0.50 0.49 0.50 0.48 0.50 0.50 0.50 0.49 0.48 0.49 0.50 0.50 0.51 0.51 0.50 0.50 0.49 0.46 0.44 0.42 0.43 0.45 0.49 0.54 0.52 0.52 0.53 0.55 0.59 0.60 0.59 0.61 0.68 0.75 0.85 0.93 1.00 1.09 1.12 1.10 0.96 0.84 0.75 0.69 0.70 0.78 0.84 0.96 1.08 1.01 1.14 1.25
0.53 0.53 0.52 0.51 0.51 0.51 0.52 0.52 0.52 0.50 0.49 0.50 0.50 0.50 0.50 0.50 0.51 0.52 0.51 0.49 0.49 0.50 0.51 0.51 0.52 0.53 0.53 0.51 0.49 0.48 0.47 0.47 0.45 0.45 0.48 0.52 0.54 0.58 0.59 0.60 0.61 0.59 0.59 0.60 0.63 0.71 0.80 0.90 0.97 0.97 1.05 1.12 1.02 0.80 0.79 0.73 0.69 0.80 0.83 1.00 1.05 1.03 1.16
0.55 0.54 0.54 0.54 0.53 0.51 0.51 0.52 0.51 0.50 0.49 0.50 0.50 0.51 0.51 0.50 0.49 0.47 0.46 0.48 0.50 0.51 0.52 0.51 0.50 0.50 0.51 0.50 0.50 0.50 0.50 0.49 0.46 0.43 0.42 0.43 0.49 0.55 0.56 0.56 0.59 0.60 0.63 0.64 0.63 0.65 0.70 0.75 0.83 0.91 1.01 1.06 0.98 0.95 0.92 0.89 0.72 0.73 0.85 0.84 1.02 1.13 1.14
0.55 0.54 0.55 0.54 0.53 0.52 0.53 0.52 0.51 0.50 0.50 0.52 0.52 0.51 0.49 0.48 0.47 0.47 0.48 0.49 0.49 0.50 0.48 0.48 0.48 0.47 0.47 0.47 0.48 0.49 0.50 0.51 0.48 0.46 0.43 0.44 0.45 0.49 0.53 0.54 0.57 0.59 0.63 0.66 0.66 0.65 0.64 0.66 0.71 0.78 0.83 0.87 0.96 1.07 1.05 0.90 0.78 0.70 0.89 0.92 0.99 1.11 1.18
0.55 0.56 0.55 0.55 0.53 0.53 0.54 0.53 0.51 0.51 0.53 0.52 0.52 0.50 0.48 0.48 0.48 0.49 0.49 0.49 0.49 0.48 0.47 0.46 0.47 0.46 0.45 0.44 0.45 0.46 0.48 0.49 0.48 0.48 0.47 0.45 0.45 0.45 0.48 0.53 0.56 0.60 0.64 0.64 0.67 0.69 0.69 0.68 0.67 0.68 0.75 0.81 0.87 0.99 1.01 0.96 0.84 0.75 0.85 1.05 1.04 1.01 1.09
0.56 0.56 0.55 0.55 0.54 0.54 0.53 0.52 0.52 0.52 0.51 0.51 0.51 0.48 0.47 0.48 0.48 0.49 0.49 0.49 0.49 0.48 0.47 0.46 0.46 0.46 0.45 0.44 0.44 0.45 0.46 0.47 0.47 0.47 0.48 0.46 0.46 0.44 0.44 0.46 0.49 0.54 0.60 0.62 0.65 0.68 0.71 0.71 0.71 0.68 0.66 0.68 0.70 0.76 0.92 0.98 0.94 0.83 0.65 0.87 0.98 1.04 0.98
0.57 0.57 0.56 0.56 0.55 0.55 0.54 0.53 0.54 0.52 0.51 0.50 0.50 0.49 0.49 0.49 0.50 0.50 0.50 0.48 0.47 0.46 0.45 0.44 0.45 0.45 0.44 0.44 0.43 0.43 0.44 0.45 0.45 0.45 0.46 0.46 0.46 0.47 0.44 0.42 0.42 0.46 0.52 0.56 0.60 0.63 0.69 0.73 0.77 0.74 0.72 0.72 0.68 0.68 0.76 0.87 0.91 0.86 0.77 0.73 0.88 0.91 0.94
0.58 0.57 0.56 0.56 0.56 0.56 0.56 0.55 0.54 0.52 0.50 0.50 0.48 0.50 0.51 0.50 0.51 0.50 0.47 0.46 0.45 0.44 0.43 0.43 0.44 0.45 0.44 0.44 0.44 0.43 0.45 0.46 0.46 0.46 0.46 0.46 0.47 0.48 0.48 0.47 0.45 0.44 0.44 0.48 0.55 0.60 0.64 0.68 0.72 0.76 0.77 0.76 0.75 0.70 0.69 0.75 0.81 0.80 0.77 0.70 0.85 0.94 0.97
0.56 0.56 0.56 0.57 0.57 0.57 0.55 0.54 0.54 0.51 0.50 0.49 0.49 0.49 0.50 0.51 0.49 0.48 0.46 0.44 0.43 0.43 0.43 0.44 0.44 0.44 0.45 0.45 0.44 0.44 0.45 0.46 0.46 0.47 0.49 0.49 0.49 0.49 0.48 0.47 0.47 0.47 0.46 0.44 0.47 0.54 0.60 0.62 0.67 0.71 0.74 0.78 0.78 0.79 0.79 0.75 0.73 0.77 0.76 0.75 0.82 0.97 1.01
0.56 0.57 0.58 0.58 0.57 0.56 0.55 0.54 0.53 0.52 0.51 0.49 0.49 0.49 0.48 0.48 0.47 0.45 0.45 0.44 0.43 0.43 0.43 0.44 0.44 0.44 0.44 0.45 0.45 0.45 0.46 0.46 0.46 0.47 0.48 0.50 0.51 0.51 0.51 0.51 0.51 0.50 0.48 0.42 0.41 0.47 0.55 0.60 0.64 0.66 0.68 0.72 0.80 0.83 0.79 0.78 0.79 0.72 0.72 0.72 0.78 0.84 0.89
0.58 0.59 0.59 0.59 0.58 0.56 0.54 0.54 0.53 0.51 0.51 0.49 0.48 0.47 0.47 0.45 0.45 0.44 0.43 0.42 0.40 0.41 0.42 0.43 0.44 0.44 0.44 0.45 0.45 0.44 0.44 0.45 0.46 0.47 0.49 0.50 0.51 0.52 0.52 0.52 0.52 0.53 0.52 0.51 0.47 0.43 0.45 0.52 0.59 0.62 0.66 0.69 0.71 0.77 0.86 0.85 0.78 0.76 0.72 0.67 0.67 0.70 0.71
0.60 0.61 0.61 0.60 0.58 0.56 0.55 0.54 0.52 0.51 0.50 0.47 0.46 0.45 0.44 0.44 0.45 0.43 0.41 0.42 0.43 0.43 0.43 0.43 0.43 0.44 0.45 0.46 0.46 0.46 0.46 0.46 0.46 0.47 0.49 0.50 0.51 0.51 0.51 0.52 0.53 0.53 0.54 0.55 0.55 0.53 0.48 0.46 0.51 0.57 0.62 0.66 0.69 0.70 0.72 0.81 0.85 0.83 0.76 0.76 0.75 0.69 0.69
0.63 0.62 0.61 0.59 0.56 0.55 0.54 0.53 0.51 0.48 0.46 0.45 0.46 0.46 0.46 0.44 0.42 0.42 0.42 0.41 0.41 0.41 0.41 0.40 0.41 0.42 0.43 0.43 0.45 0.44 0.45 0.45 0.45 0.44 0.45 0.46 0.48 0.50 0.50 0.51 0.52 0.53 0.54 0.55 0.56 0.58 0.58 0.55 0.50 0.48 0.53 0.60 0.63 0.65 0.66 0.70 0.79 0.86 0.86 0.77 0.76 0.85 0.78
0.63 0.63 0.60 0.57 0.55 0.55 0.53 0.50 0.47 0.45 0.45 0.46 0.46 0.45 0.44 0.44 0.43 0.40 0.39 0.39 0.39 0.39 0.39 0.39 0.38 0.38 0.39 0.40 0.42 0.43 0.44 0.44 0.44 0.44 0.44 0.44 0.45 0.47 0.48 0.50 0.51 0.53 0.53 0.54 0.55 0.55 0.57 0.57 0.57 0.55 0.53 0.54 0.57 0.61 0.63 0.62 0.64 0.75 0.81 0.82 0.82 0.78 0.75
0.65 0.62 0.59 0.57 0.55 0.53 0.49 0.46 0.45 0.45 0.46 0.45 0.44 0.44 0.44 0.41 0.39 0.39 0.38 0.37 0.37 0.37 0.38 0.37 0.35 0.35 0.35 0.37 0.39 0.41 0.42 0.42 0.44 0.44 0.45 0.44 0.43 0.44 0.46 0.48 0.49 0.51 0.52 0.53 0.54 0.55 0.55 0.56 0.58 0.57 0.56 0.56 0.55 0.56 0.57 0.59 0.59 0.61 0.70 0.77 0.83 0.87 0.83
0.63 0.59 0.57 0.55 0.53 0.49 0.47 0.45 0.45 0.45 0.44 0.43 0.43 0.43 0.40 0.39 0.38 0.38 0.38 0.37 0.37 0.37 0.37 0.37 0.35 0.34 0.36 0.38 0.40 0.41 0.41 0.41 0.43 0.44 0.45 0.45 0.45 0.45 0.45 0.46 0.47 0.49 0.50 0.51 0.53 0.54 0.54 0.55 0.56 0.57 0.58 0.57 0.56 0.58 0.60 0.60 0.58 0.58 0.60 0.66 0.75 0.81 0.85
0.59 0.56 0.55 0.52 0.49 0.47 0.46 0.45 0.44 0.43 0.42 0.43 0.42 0.40 0.39 0.38 0.37 0.38 0.38 0.36 0.36 0.36 0.36 0.36 0.35 0.36 0.38 0.40 0.42 0.42 0.42 0.41 0.41 0.41 0.43 0.44 0.44 0.45 0.45 0.45 0.45 0.47 0.48 0.49 0.50 0.51 0.52 0.52 0.54 0.55 0.56 0.57 0.58 0.56 0.58 0.60 0.62 0.62 0.63 0.64 0.67 0.73 0.79
0.56 0.54 0.52 0.49 0.47 0.45 0.43 0.43 0.43 0.43 0.43 0.42 0.40 0.39 0.38 0.38 0.38 0.37 0.37 0.36 0.36 0.36 0.35 0.36 0.38 0.39 0.41 0.42 0.43 0.43 0.43 0.43 0.43 0.43 0.43 0.43 0.44 0.44 0.44 0.44 0.44 0.45 0.47 0.49 0.49 0.49 0.50 0.50 0.50 0.51 0.52 0.53 0.56 0.58 0.60 0.59 0.60 0.63 0.66 0.66 0.66 0.66 0.73
0.54 0.51 0.48 0.46 0.44 0.43 0.42 0.43 0.43 0.43 0.42 0.40 0.39 0.38 0.37 0.37 0.37 0.36 0.36 0.35 0.34 0.34 0.36 0.38 0.40 0.41 0.43 0.43 0.44 0.45 0.45 0.45 0.44 0.44 0.44 0.44 0.44 0.44 0.45 0.45 0.45 0.45 0.46 0.47 0.48 0.49 0.49 0.49 0.49 0.48 0.47 0.48 0.50 0.53 0.55 0.57 0.57 0.58 0.60 0.65 0.67 0.67 0.68
0.50 0.48 0.45 0.43 0.42 0.43 0.43 0.43 0.42 0.42 0.41 0.41 0.40 0.38 0.38 0.37 0.35 0.34 0.34 0.34 0.34 0.35 0.38 0.41 0.43 0.43 0.44 0.45 0.45 0.44 0.44 0.43 0.42 0.42 0.43 0.44 0.44 0.45 0.45 0.45 0.45 0.45 0.46 0.46 0.48 0.49 0.49 0.49 0.48 0.46 0.45 0.45 0.46 0.48 0.50 0.54 0.59 0.61 0.61 0.60 0.63 0.65 0.67
0.48 0.45 0.44 0.43 0.43 0.43 0.43 0.42 0.42 0.42 0.39 0.38 0.36 0.36 0.35 0.34 0.34 0.33 0.33 0.35 0.35 0.37 0.40 0.43 0.45 0.45 0.45 0.45 0.44 0.43 0.43 0.42 0.42 0.41 0.41 0.43 0.44 0.44 0.45 0.46 0.46 0.45 0.45 0.46 0.48 0.49 0.49 0.49 0.47 0.45 0.45 0.44 0.44 0.45 0.45 0.49 0.55 0.60 0.63 0.64 0.63 0.67 0.70
0.46 0.44 0.43 0.42 0.42 0.43 0.43 0.42 0.41 0.40 0.37 0.35 0.34 0.33 0.33 0.32 0.33 0.34 0.34 0.35 0.38 0.38 0.41 0.44 0.45 0.45 0.45 0.45 0.45 0.44 0.44 0.42 0.41 0.41 0.41 0.42 0.42 0.43 0.44 0.45 0.46 0.45 0.45 0.45 0.47 0.48 0.49 0.49 0.46 0.45 0.45 0.43 0.43 0.43 0.43 0.47 0.50 0.53 0.61 0.67 0.68 0.68 0.70
0.44 0.43 0.43 0.42 0.42 0.40 0.38 0.37 0.36 0.35 0.33 0.33 0.32 0.32 0.32 0.32 0.32 0.33 0.34 0.36 0.39 0.40 0.42 0.44 0.45 0.45 0.45 0.45 0.45 0.45 0.44 0.42 0.41 0.40 0.40 0.40 0.42 0.43 0.43 0.44 0.45 0.46 0.46 0.46 0.47 0.47 0.48 0.48 0.47 0.47 0.46 0.45 0.42 0.41 0.43 0.48 0.48 0.47 0.52 0.62 0.69 0.71 0.71
0.44 0.42 0.43 0.43 0.40 0.36 0.33 0.33 0.33 0.33 0.33 0.32 0.30 0.30 0.30 0.26 0.26 0.29 0.33 0.36 0.39 0.41 0.42 0.42 0.44 0.44 0.44 0.44 0.44 0.45 0.44 0.43 0.42 0.42 0.43 0.43 0.42 0.44 0.45 0.46 0.47 0.48 0.48 0.48 0.48 0.48 0.48 0.48 0.47 0.48 0.49 0.46 0.43 0.41 0.48 0.50 0.50 0.50 0.52 0.61 0.67 0.72 0.71
0.45 0.43 0.40 0.37 0.36 0.36 0.36 0.35 0.34 0.32 0.31 0.31 0.30 0.27 0.23 0.23 0.25 0.28 0.32 0.36 0.39 0.41 0.42 0.42 0.43 0.44 0.44 0.44 0.45 0.45 0.45 0.45 0.45 0.45 0.45 0.45 0.45 0.45 0.46 0.47 0.48 0.50 0.51 0.51 0.51 0.51 0.51 0.50 0.50 0.49 0.49 0.47 0.46 0.48 0.52 0.50 0.50 0.53 0.51 0.54 0.62 0.67 0.67
0.42 0.41 0.41 0.39 0.36 0.35 0.35 0.34 0.33 0.31 0.31 0.29 0.24 0.21 0.22 0.24 0.26 0.28 0.31 0.34 0.37 0.40 0.42 0.42 0.42 0.44 0.45 0.45 0.46 0.47 0.46 0.47 0.48 0.47 0.46 0.47 0.48 0.49 0.50 0.51 0.52 0.54 0.55 0.55 0.55 0.54 0.54 0.53 0.53 0.52 0.51 0.51 0.51 0.52 0.50 0.51 0.51 0.52 0.50 0.50 0.57 0.62 0.62
0.43 0.39 0.37 0.35 0.32 0.30 0.32 0.32 0.31 0.31 0.29 0.27 0.23 0.22 0.23 0.25 0.27 0.29 0.30 0.32 0.36 0.39 0.41 0.42 0.43 0.43 0.45 0.46 0.47 0.48 0.49 0.50 0.51 0.51 0.50 0.49 0.52 0.54 0.56 0.57 0.58 0.59 0.59 0.60 0.60 0.59 0.58 0.57 0.56 0.54 0.54 0.54 0.54 0.54 0.54 0.53 0.51 0.50 0.49 0.48 0.52 0.56 0.59
0.35 0.34 0.33 0.33 0.32 0.32 0.33 0.33 0.31 0.29 0.27 0.26 0.25 0.24 0.24 0.26 0.28 0.27 0.27 0.30 0.34 0.38 0.40 0.41 0.43 0.45 0.46 0.48 0.49 0.50 0.51 0.52 0.54 0.54 0.55 0.55 0.57 0.59 0.60 0.61 0.62 0.62 0.62 0.62 0.62 0.62 0.61 0.60 0.58 0.57 0.57 0.56 0.56 0.57 0.56 0.53 0.52 0.50 0.49 0.48 0.48 0.52 0.55
Wind_Speed
13 13 12 12 12 11 11 11 11 11 11 11 12 12 12 12 13 14 15 16 17 18 19 20 21 22 23 23 23 23 23 24 25 26 27 27 28 28 28 30 30 31 31 31 31 30 29 28 28 28 29 30 31 31 30 30 30 30 30 30 30 31 31
14 14 13 13 13 13 12 12 12 12 12 12 12 13 13 13 13 14 14 15 16 17 18 19 20 22 23 24 24 24 24 25 25 26 27 28 28 28 29 29 30 30 30 31 33 32 32 32 31 30 29 30 31 32 32 31 31 31 30 30 30 31 31
15 15 15 15 14 14 14 14 14 14 14 14 14 14 14 14 14 14 15 15 16 16 17 18 19 21 22 23 24 25 26 26 26 27 27 28 29 29 29 30 30 30 30 30 31 32 33 33 33 33 32 31 31 31 32 33 33 32 32 31 31 31 31
16 16 16 16 16 16 16 15 15 15 15 15 15 15 16 16 16 16 16 16 16 17 18 18 19 20 21 22 23 25 26 27 27 28 28 28 29 29 30 31 31 31 31 31 31 32 32 33 33 33 34 34 33 32 32 33 34 34 34 33 33 32 32
17 17 17 17 17 17 17 17 16 16 16 16 16 17 17 17 17 17 17 17 18 18 19 19 20 20 21 22 23 24 25 26 27 28 29 29 30 30 30 31 32 32 33 33 32 32 32 33 33 33 34 34 35 34 33 32 33 34 34 34 34 34 33
18 18 18 18 18 18 18 18 18 18 17 18 18 18 18 18 18 18 19 19 19 20 20 20 21 22 22 23 24 25 25 26 27 28 29 29 30 30 30 31 32 33 33 33 33 33 33 33 33 34 34 34 35 35 35 34 33 33 33 33 33 34 34
19 19 19 19 19 19 19 18 19 18 18 18 18 19 19 19 19 20 20 20 21 21 21 22 22 23 24 24 24 25 26 27 28 28 29 30 30 30 31 31 32 33 33 33 33 34 35 35 35 34 34 34 35 35 36 35 35 34 33 33 33 34 34
20 20 20 19 19 19 19 19 19 19 19 20 20 20 20 20 21 21 21 21 22 22 23 23 23 23 24 24 25 26 26 27 28 29 29 30 31 31 31 32 33 33 33 33 33 34 35 35 36 35 35 34 34 34 34 35 35 35 34 34 34 34 34
20 20 20 20 20 20 20 20 20 20 20 21 21 21 21 21 22 22 22 23 23 24 24 24 24 24 24 25 25 26 27 27 28 29 30 30 31 32 32 33 33 34 34 34 34 34 34 35 35 36 36 35 35 34 34 34 35 35 35 35 34 34 34
21 21 21 21 21 21 21 21 21 21 21 22 22 22 22 23 23 23 24 24 24 24 25 25 25 25 25 26 26 27 27 28 29 30 30 31 31 32 32 33 33 34 34 35 35 35 35 36 36 36 37 37 37 36 35 35 35 34 34 35 35 34 34
21 21 21 22 22 22 22 22 22 22 23 23 23 23 23 24 24 24 25 25 25 25 25 26 26 26 27 27 27 28 28 28 29 30 30 31 31 31 32 33 33 33 34 35 36 36 36 37 37 37 37 37 38 38 37 37 36 36 35 35 35 35 34
22 22 22 22 23 23 23 23 24 24 24 24 24 24 24 25 25 26 26 26 26 26 26 27 27 27 28 28 28 29 29 29 30 30 31 32 32 32 33 34 34 34 34 34 35 36 37 37 38 38 38 38 39 39 39 38 38 37 37 36 36 36 35
23 23 23 23 23 24 24 24 24 25 25 25 25 25 26 26 26 26 27 27 27 27 28 28 28 29 29 29 30 30 30 30 31 31 31 32 32 33 33 34 34 34 34 34 35 36 37 37 38 39 39 39 39 39 39 40 39 39 38 38 38 38 37
23 23 24 24 24 24 25 25 25 25 25 26 26 26 27 27 27 28 28 28 28 29 29 30 30 30 30 31 31 31 31 31 32 32 32 32 33 33 34 34 35 35 35 35 35 36 37 37 38 38 39 39 40 40 39 40 40 39 39 39 39 39 38
24 24 24 24 25 25 25 26 26 26 26 27 27 27 28 28 28 29 29 29 30 30 31 31 31 31 32 32 32 32 32 33 33 33 33 33 33 34 35 36 36 36 36 36 36 36 36 37 38 39 39 39 40 40 40 40 40 39 39 39 39 40 39
24 24 25 25 25 26 26 26 27 27 27 28 28 28 29 29 29 30 30 31 31 31 32 32 32 32 33 33 33 34 34 34 34 34 34 34 34 35 35 36 37 37 37 38 37 37 37 37 38 38 39 39 40 40 40 41 40 40 39 39 39 40 40
24 25 25 25 26 26 27 27 28 28 28 29 29 29 30 30 30 31 31 32 32 32 33 33 33 33 34 34 35 35 35 35 35 35 35 35 35 36 36 36 37 37 38 38 39 38 38 37 37 38 38 39 40 40 41 41 41 41 40 39 39 40 40
25 26 26 26 26 27 27 28 28 28 29 29 29 30 30 30 31 32 32 33 33 33 34 34 34 35 35 36 36 36 36 36 37 37 37 37 36 37 37 37 37 37 38 39 39 39 39 39 38 38 38 38 39 40 40 41 41 42 42 41 39 39 40
26 26 26 27 27 27 28 28 28 29 29 29 30 30 31 31 32 32 33 33 34 34 35 35 36 36 37 37 37 37 37 38 38 38 38 38 38 38 38 38 38 38 38 39 39 39 40 40 40 39 39 39 38 39 40 41 41 41 42 42 41 40 40
26 26 26 27 27 27 28 28 28 28 29 29 30 31 31 32 32 33 34 34 34 35 35 36 36 37 37 38 38 38 39 39 39 39 40 39 39 39 39 39 38 38 39 39 39 39 40 40 40 40 40 40 39 39 39 40 41 41 42 42 42 41 41
26 26 26 26 26 26 27 27 28 28 29 29 30 31 31 32 33 34 34 34 35 35 36 37 37 38 38 38 38 39 39 40 40 40 41 40 40 40 40 40 40 39 39 39 39 39 39 40 41 41 41 40 40 40 39 39 39 40 41 42 42 41 41
26 26 25 25 26 26 26 27 27 28 28 29 30 30 31 32 33 33 33 34 35 37 38 39 39 40 40 40 40 40 41 41 42 42 42 42 42 42 42 42 41 41 41 40 40 40 40 40 40 41 42 42 42 41 41 40 39 39 40 41 41 41 41
25 25 25 25 25 25 26 26 27 27 28 29 29 30 31 32 32 33 34 35 36 38 39 39 40 41 42 42 42 42 42 43 43 43 43 44 44 44 43 43 43 43 43 43 42 42 41 41 40 40 41 42 43 43 43 42 41 40 40 40 41 41 41
25 25 24 25 25 25 26 26 27 28 28 29 30 30 31 31 32 33 35 36 37 38 39 40 41 42 42 42 43 43 43 44 44 44 44 44 44 44 44 45 44 45 44 44 44 44 43 43 42 42 41 42 43 44 44 44 43 43 42 42 41 41 41
24 24 24 24 25 26 26 27 27 28 28 29 30 31 31 32 33 34 35 37 38 39 39 40 41 42 42 42 42 42 43 44 44 44 45 45 45 45 45 46 45 45 45 45 45 45 45 45 44 43 43 43 43 43 44 45 45 44 44 43 43 42 42
23 24 24 24 25 26 26 27 27 28 29 30 31 31 32 33 34 35 36 37 38 39 39 40 41 41 41 41 42 42 42 43 44 44 45 45 46 46 46 46 47 46 46 46 46 46 46 46 46 45 45 44 44 44 44 45 46 46 46 45 45 45 44
23 23 24 24 25 26 26 27 28 29 30 30 31 31 32 33 34 36 37 38 39 39 39 40 40 40 40 40 41 41 42 42 43 43 44 45 45 46 47 47 47 47 47 47 47 47 47 47 47 47 46 46 45 44 44 44 45 46 46 46 47 47 46
22 23 24 24 25 26 26 27 28 29 29 30 30 31 32 34 35 37 38 39 39 40 40 40 40 40 40 40 40 41 41 42 43 44 44 45 46 46 47 47 48 48 48 48 48 48 48 48 48 48 48 47 46 46 45 45 45 45 45 45 46 47 47
22 23 24 25 25 26 26 27 28 29 29 30 31 32 34 35 37 38 38 39 39 40 40 40 39 39 39 40 41 41 42 43 43 44 45 45 46 46 47 48 48 49 49 48 48 49 49 49 49 49 49 49 48 48 47 47 46 46 45 45 45 46 46
22 23 24 24 25 25 26 26 27 28 29 30 32 34 35 37 38 38 39 39 39 40 39 39 39 39 40 40 41 41 42 42 43 44 45 45 46 47 47 48 48 49 49 49 49 49 49 49 49 50 50 50 49 49 48 48 47 47 46 46 45 46 46
22 23 23 23 24 25 26 27 28 29 30 31 33 35 36 37 38 38 39 39 39 39 39 39 39 39 40 40 41 41 42 43 43 44 45 46 46 47 48 49 49 49 50 50 49 50 50 50 50 50 50 50 50 50 49 47 47 48 47 46 45 45 45
22 22 23 23 24 25 27 28 29 30 31 32 34 35 36 37 38 38 38 38 39 39 38 38 39 39 40 40 41 41 42 43 44 45 45 46 46 47 48 49 50 50 51 50 50 50 50 50 50 50 50 50 50 50 49 47 47 47 47 46 45 44 44
21 22 22 23 25 26 27 28 28 30 31 32 34 35 36 37 37 37 37 37 38 38 38 38 39 39 40 40 41 41 42 43 44 45 45 45 46 47 48 48 49 50 51 51 51 50 50 50 51 51 51 51 51 50 48 48 47 47 47 47 45 44 43
21 21 22 23 24 25 26 27 29 30 31 32 34 35 36 37 37 37 37 37 37 37 38 39 39 40 40 40 41 41 42 43 44 44 45 45 46 46 46 47 47 48 49 50 50 50 50 50 50 51 51 52 52 51 50 49 49 48 47 48 46 45 43
20 21 22 23 24 25 26 27 28 29 31 32 34 35 36 37 37 37 37 37 38 38 38 39 39 39 40 40 41 42 42 43 44 45 45 45 44 43 43 43 44 45 46 48 48 49 49 49 49 50 51 51 52 52 52 51 50 49 48 48 48 46 44
18 20 21 22 23 24 25 26 28 29 31 32 34 35 36 36 36 36 37 37 37 38 38 38 39 39 39 40 41 42 43 44 44 44 43 42 40 39 39 39 40 41 42 44 45 46 47 48 48 49 49 50 50 51 51 51 50 49 48 48 48 48 45
18 19 20 21 22 23 24 26 28 29 31 32 34 35 35 34 34 36 37 37 37 37 37 37 37 38 39 40 41 42 42 42 42 41 39 38 37 36 36 36 37 38 39 40 42 43 44 46 47 48 49 49 49 49 50 50 49 49 48 47 48 48 46
Wind_Direction
247 250 252 253 254 256 258 259 261 263 262 260 260 261 261 261 261 260 259 258 257 257 257 256 255 254 253 253 253 252 252 252 252 253 253 253 252 252 252 252 252 252 250 249 249 251 252 253 252 252 252 252 252 251 252 253 252 251 251 251 251 252 251
249 251 253 254 254 256 257 258 260 262 263 262 261 262 261 261 262 262 262 262 261 260 260 259 259 257 256 256 255 255 254 253 253 254 254 254 254 254 253 253 253 253 252 251 250 251 251 252 252 252 253 253 252 252 252 253 253 253 252 252 252 253 252
251 252 255 256 256 256 256 258 260 261 263 264 263 263 263 263 263 264 264 264 263 263 263 262 262 261 260 259 258 257 257 256 255 255 255 255 255 255 255 254 254 253 253 253 252 251 251 251 251 252 252 253 254 254 254 253 253 253 253 253 253 253 252
252 254 255 256 256 257 257 259 260 261 262 262 263 264 265 265 266 266 267 266 266 266 266 265 264 264 263 262 261 260 259 259 258 257 256 256 256 255 255 255 254 253 253 253 253 252 252 251 251 251 251 252 254 256 256 255 254 254 254 253 254 254 253
254 255 255 255 256 257 258 259 260 261 262 263 263 265 266 266 267 267 268 268 268 268 267 267 267 266 266 264 263 262 262 261 260 259 259 258 258 257 256 255 255 254 253 253 253 253 253 252 252 252 251 252 254 255 255 255 255 254 254 254 255 255 254
255 256 256 255 256 257 257 258 259 260 262 263 263 264 265 266 266 267 268 269 270 269 269 270 269 268 267 266 265 264 263 262 261 261 260 260 259 259 258 257 256 256 255 254 254 253 253 252 252 253 253 253 254 254 253 254 254 254 253 253 255 255 255
257 257 257 256 256 257 257 258 259 260 260 261 262 263 264 265 267 268 269 270 270 271 271 271 271 270 269 267 265 264 264 263 262 262 262 261 260 260 259 258 257 257 257 256 255 254 254 253 252 253 254 254 254 254 253 252 253 254 254 254 255 255 254
258 258 258 258 257 257 259 260 260 260 261 262 262 264 265 266 268 269 270 271 271 272 272 272 272 271 269 268 267 266 264 263 263 262 262 262 262 261 260 260 259 258 257 257 256 255 254 254 254 253 252 253 253 253 253 252 252 253 254 256 256 255 254
258 259 259 259 259 260 260 261 261 261 262 263 264 265 266 267 268 269 271 272 272 273 274 273 273 271 270 269 269 268 267 265 264 263 263 262 262 262 261 261 260 260 259 257 256 256 255 255 255 253 252 251 252 253 253 253 253 253 254 255 255 255 254
258 259 259 260 260 261 262 262 263 263 264 265 266 267 268 269 270 271 272 273 273 274 275 275 274 273 272 271 270 270 269 267 266 265 264 264 263 263 262 261 261 260 260 259 257 256 255 255 255 254 253 252 251 252 252 253 253 253 254 253 253 254 254
260 260 261 261 262 262 263 264 264 265 265 266 267 268 269 270 271 272 273 274 274 274 275 275 275 274 273 272 272 271 270 269 268 267 266 265 265 264 263 262 261 261 260 259 259 257 255 255 254 254 254 253 252 252 252 253 254 253 253 253 252 254 255
260 261 262 262 263 263 264 265 265 266 267 268 268 269 271 271 272 273 274 275 275 275 275 276 276 275 273 272 272 272 271 270 270 269 268 266 265 264 263 263 262 261 261 260 259 258 257 255 254 254 254 254 254 253 252 253 254 252 252 252 253 253 254
261 262 262 263 263 264 264 265 266 267 267 268 269 270 272 273 273 274 275 276 276 276 276 276 275 275 274 273 272 271 271 270 269 270 269 268 266 265 264 264 263 262 261 261 260 259 258 257 255 254 254 253 253 253 253 253 253 253 252 252 253 253 253
262 262 263 264 264 265 266 266 267 268 268 269 270 271 273 274 274 275 276 276 276 276 276 276 276 275 275 274 273 271 271 270 269 269 269 269 267 265 265 264 263 262 261 261 260 259 258 257 256 255 254 253 253 253 253 253 253 253 252 252 252 253 253
262 263 264 265 266 266 267 267 268 268 269 270 272 273 274 275 276 276 277 277 277 277 277 277 276 275 274 274 274 272 271 270 269 269 269 268 268 267 265 264 264 262 261 261 260 260 259 257 256 255 254 253 253 252 252 253 253 253 252 251 251 252 252
263 264 265 266 267 267 268 268 269 270 271 272 273 274 275 276 277 277 277 277 277 277 277 277 276 275 274 274 274 273 272 270 269 269 268 268 267 267 266 266 265 263 262 260 260 259 259 258 257 255 255 254 253 253 252 252 252 252 252 251 250 251 251
263 264 265 266 267 267 268 269 270 271 272 273 274 275 276 277 277 277 277 277 277 278 277 277 276 275 274 274 273 273 272 271 270 269 268 268 267 267 266 266 265 264 263 261 260 259 259 258 258 256 255 254 254 253 252 251 251 252 252 251 250 250 250
264 264 265 266 267 268 269 270 271 272 273 274 275 276 277 277 277 278 278 278 279 278 278 277 276 275 274 274 274 273 272 270 270 269 268 268 267 267 266 265 265 264 264 263 261 259 258 258 258 257 256 255 254 254 253 252 251 251 251 251 250 250 250
265 265 266 267 268 269 270 271 271 272 273 275 276 277 278 278 279 279 279 279 280 279 279 278 277 276 276 275 274 274 272 271 270 269 268 268 267 267 266 266 265 264 263 263 262 261 259 258 257 257 256 256 255 254 253 252 251 250 250 250 250 249 249
265 265 266 267 268 269 270 271 272 274 275 276 277 278 279 279 280 280 280 281 280 280 279 279 278 278 277 276 275 274 273 271 270 270 269 268 267 267 266 266 265 264 263 263 262 262 260 258 257 256 256 256 255 255 254 253 252 251 250 250 249 248 248
264 264 266 267 268 270 271 272 274 275 277 278 279 280 280 280 281 281 281 281 281 280 280 279 279 278 278 277 276 275 273 272 271 270 269 268 268 267 266 266 265 264 263 262 262 261 261 259 258 256 255 255 255 255 254 253 253 252 250 249 249 248 247
261 262 264 266 268 270 272 273 275 276 278 279 280 281 281 282 282 282 282 282 281 281 280 280 280 279 278 277 276 275 274 273 272 271 269 269 268 267 266 265 264 263 262 262 261 261 260 260 259 257 256 255 255 254 254 253 252 252 251 250 248 247 247
259 261 263 265 268 270 272 274 277 278 279 280 282 283 283 283 283 283 283 283 282 282 282 282 282 281 280 278 276 275 274 273 272 271 270 269 268 267 265 264 264 263 262 261 260 259 259 258 258 258 256 255 254 254 253 252 251 251 251 250 249 247 246
257 259 261 265 267 270 273 276 278 279 280 281 283 285 286 285 285 285 284 284 284 283 283 283 283 283 281 279 277 275 273 272 271 270 269 268 267 266 265 264 263 262 261 260 259 258 258 257 257 257 256 255 254 253 253 252 251 250 250 250 249 248 247
255 257 261 265 268 271 274 276 278 279 279 282 285 287 287 287 287 287 286 286 285 284 284 284 284 283 281 279 277 275 274 272 271 270 269 268 267 266 265 265 264 262 261 260 259 258 257 256 256 255 255 255 254 253 252 251 250 250 249 249 249 248 248
255 258 262 265 269 271 274 276 278 279 280 283 286 288 288 288 288 288 287 287 286 286 286 285 285 283 281 279 277 276 275 273 271 270 268 267 266 266 265 264 263 262 261 260 259 258 257 256 255 254 254 254 253 252 251 250 250 249 249 248 248 247 247
257 260 263 266 269 272 274 276 278 280 282 285 287 288 289 289 289 289 288 288 288 288 288 287 286 284 282 280 278 276 275 274 272 271 270 268 267 266 265 264 263 262 261 260 259 258 257 257 255 254 253 252 252 252 251 250 249 249 248 248 247 247 246
258 261 265 268 271 273 275 277 279 281 283 286 287 289 290 290 290 290 290 290 290 289 289 288 287 285 282 281 279 277 276 274 273 272 271 270 268 267 266 265 263 262 261 260 259 258 257 257 256 255 253 252 251 251 251 250 249 248 248 248 248 247 246
260 263 267 270 272 274 276 279 281 283 285 286 289 291 292 292 292 292 292 292 291 290 290 288 287 285 283 282 280 279 277 275 274 273 272 271 270 268 267 265 264 263 261 260 258 257 257 256 256 255 254 252 251 250 250 250 249 249 248 248 248 247 246
262 266 269 271 273 275 278 280 283 285 287 288 290 293 294 294 294 293 293 293 292 291 290 288 287 286 285 283 282 280 279 277 275 274 273 271 270 269 267 266 264 263 261 260 258 257 256 256 255 254 253 252 251 250 249 249 249 249 248 248 248 247 246
264 267 269 272 274 277 279 282 285 288 289 290 292 294 295 296 296 295 294 293 293 292 290 289 288 287 286 285 283 282 280 278 277 276 274 273 271 270 268 266 265 263 261 260 259 257 256 255 254 253 253 252 250 249 248 248 249 248 247 247 247 246 245
264 267 270 274 276 279 282 285 287 288 289 290 293 294 296 297 297 296 295 294 293 292 291 290 289 288 287 286 284 283 281 280 279 277 276 275 273 271 269 267 265 263 262 260 259 257 255 254 253 252 252 251 249 248 248 248 248 247 246 246 246 245 244
266 269 273 276 279 282 285 286 287 287 289 292 294 295 296 298 299 298 297 296 295 294 293 292 291 289 288 287 285 284 283 281 280 280 278 277 275 273 271 269 266 264 262 260 259 257 255 253 252 251 250 249 248 247 247 247 246 246 246 245 245 244 243
268 272 275 279 282 285 285 285 286 289 291 294 296 297 298 299 300 300 300 299 297 295 294 292 291 290 289 288 287 286 285 284 283 282 281 279 277 274 271 269 267 264 262 260 258 257 255 253 251 250 249 248 247 247 246 246 245 245 245 244 244 244 243
270 275 278 281 284 285 285 286 289 291 294 296 298 298 299 300 300 300 300 300 298 296 295 293 292 291 290 289 289 288 287 286 285 284 282 280 278 275 272 270 267 265 262 260 258 255 254 252 250 249 248 247 246 245 245 244 244 244 244 243 242 242 241
272 277 281 283 285 286 287 289 291 293 296 298 299 300 300 300 299 299 300 300 299 298 296 295 293 292 291 291 291 290 289 287 286 284 282 280 278 276 273 271 268 265 262 259 257 254 253 251 249 248 247 246 245 244 243 243 242 243 243 241 240 240 239
275 280 283 286 288 289 290 291 294 296 298 299 300 301 301 300 300 301 301 301 300 299 298 296 294 294 294 294 293 292 291 288 286 284 282 280 279 277 275 273 270 267 263 260 256 254 252 251 249 248 247 245 244 242 242 241 240 240 240 239 238 237 237